Boston, MA

8:20 PM EST on February 05, 2016 (GMT -0500)
East Milton

Weather History for KMQE - November, 2012

Change the Weather History Date:

Friday, November 9, 2012

  Actual Average (KBOS) Record (KBOS)
Temperature  
Mean Temperature 42 °F 47 °F  
Max Temperature 51 °F 54 °F 74 °F (1945)
Min Temperature 34 °F 40 °F 24 °F (1971)
Degree Days  
Heating Degree Days 22 18  
Month to date heating degree days 154  
Since 1 July heating degree days 601  
Cooling Degree Days 0 0  
Month to date cooling degree days 0  
Year to date cooling degree days 747  
Moisture  
Dew Point 25 °F    
Average Humidity 56    
Maximum Humidity 82    
Minimum Humidity 31    
Precipitation  
Precipitation 0.00 in 0.14 in 2.01 in (1877)
Month to date precipitation 1.16  
Year to date precipitation 37.16  
Sea Level Pressure  
Sea Level Pressure 29.95 in    
Wind  
Wind Speed 16 mph (NW)    
Max Wind Speed 20 mph    
Max Gust Speed 30 mph    
T = Trace of Precipitation, MM = Missing Value Source: NWS Daily Summary

Daily Weather History Graph

Daily Weather History Graph

Search for Another Location

Airport or City:

Trip Planner

Search our weather history database for the weather conditions in past years. The results will help you decide how hot, cold, wet, or windy it might be!

Date:

Astronomy

Nov. 09, 2012 Rise Set
Actual Time 6:27 AM EST 4:28 PM EST
Civil Twilight 5:58 AM EST 4:57 PM EST
Nautical Twilight 5:24 AM EST 5:31 PM EST
Astronomical Twilight 4:51 AM EST 6:04 PM EST
Moon 1:18 AM EST (11/9) 1:44 PM EST (11/9)
Length of Visible Light 10h 59m
Length of Day
10h 00m
Waning Crescent, 23% of the Moon is Illuminated
Nov 9
Waning Crescent
Nov 13
New
Nov 20
First Quarter
Nov 28
Full
Dec 6
Last Quarter

Hourly Weather History & Observations

Time (EST) Temp. Windchill Dew Point Humidity Pressure Visibility Wind Dir Wind Speed Gust Speed Precip Events Conditions
12:54 AM 36.0 °F 26.3 °F 30.9 °F 82% 29.76 in - NW 16.1 mph 25.3 mph N/A   Unknown
1:54 AM 37.0 °F 27.0 °F 30.0 °F 76% 29.78 in - NW 18.4 mph 28.8 mph N/A   Unknown
2:54 AM 37.0 °F 27.0 °F 28.9 °F 73% 29.79 in - NNW 18.4 mph 28.8 mph N/A   Unknown
3:54 AM 36.0 °F 26.7 °F 28.9 °F 76% 29.81 in - NW 15.0 mph 27.6 mph N/A   Unknown
4:54 AM 36.0 °F 26.0 °F 28.0 °F 73% 29.83 in - NW 17.3 mph 29.9 mph N/A   Unknown
5:54 AM 35.1 °F 25.2 °F 28.0 °F 76% 29.85 in - NW 16.1 mph 25.3 mph N/A   Unknown
6:54 AM 34.0 °F 23.8 °F 28.0 °F 79% 29.88 in - NW 16.1 mph 26.5 mph N/A   Unknown
7:54 AM 36.0 °F 25.6 °F 28.0 °F 73% 29.91 in - NW 18.4 mph 25.3 mph N/A   Unknown
8:54 AM 39.0 °F 30.3 °F 28.0 °F 65% 29.91 in - NW 16.1 mph 28.8 mph N/A   Unknown
9:54 AM 42.1 °F 33.3 °F 28.0 °F 58% 29.92 in - NW 19.6 mph 25.3 mph N/A   Unknown
10:54 AM 45.0 °F 38.2 °F 28.9 °F 53% 29.94 in - NW 15.0 mph 23.0 mph N/A   Unknown
11:54 AM 48.0 °F - 28.0 °F 46% 29.94 in - NW 12.7 mph 23.0 mph N/A   Unknown
12:54 PM 50.0 °F - 21.9 °F 33% 29.93 in - NW 19.6 mph 29.9 mph N/A   Unknown
1:54 PM 50.0 °F - 19.9 °F 31% 29.94 in - NW 16.1 mph 27.6 mph N/A   Unknown
2:54 PM 51.1 °F - 21.0 °F 31% 29.95 in - NW 17.3 mph 27.6 mph N/A   Unknown
3:54 PM 48.9 °F - 21.0 °F 33% 29.98 in - NW 12.7 mph 24.2 mph N/A   Unknown
4:54 PM 46.0 °F 39.9 °F 21.0 °F 37% 30.02 in - WNW 13.8 mph 23.0 mph N/A   Unknown
5:54 PM 45.0 °F 38.5 °F 19.9 °F 37% 30.05 in - NW 13.8 mph 23.0 mph N/A   Unknown
6:54 PM 44.1 °F 37.7 °F 21.0 °F 40% 30.08 in - NW 12.7 mph 20.7 mph N/A   Unknown
7:54 PM 42.1 °F 36.1 °F 23.0 °F 47% 30.09 in - NW 10.4 mph - N/A   Unknown
8:54 PM 39.9 °F 32.9 °F 23.0 °F 51% 30.10 in - WNW 11.5 mph - N/A   Unknown
9:54 PM 39.0 °F 31.8 °F 23.0 °F 53% 30.11 in - WNW 11.5 mph - N/A   Unknown
10:54 PM 37.9 °F 30.9 °F 24.1 °F 57% 30.11 in - WNW 10.4 mph - N/A   Unknown
11:54 PM 37.0 °F 29.3 °F 24.1 °F 59% 30.12 in - WNW 11.5 mph - N/A   Unknown